TimeCDT,TemperatureF,Dew PointF,Humidity,Sea Level PressureIn,VisibilityMPH,Wind Direction,Wind SpeedMPH,Gust SpeedMPH,PrecipitationIn,Events,Conditions,WindDirDegrees,DateUTC
12:15 AM,32.0,32.0,100,29.86,10.0,NNE,4.6,-,N/A,,Overcast,30,2013-04-07 05:15:00
12:35 AM,32.0,32.0,100,29.86,10.0,NNE,5.8,-,N/A,,Overcast,30,2013-04-07 05:35:00
12:55 AM,32.0,32.0,100,29.86,10.0,NE,4.6,-,N/A,,Overcast,50,2013-04-07 05:55:00
1:15 AM,32.0,32.0,100,29.87,10.0,North,3.5,-,N/A,,Overcast,360,2013-04-07 06:15:00
1:35 AM,32.0,32.0,100,29.86,10.0,Calm,Calm,-,N/A,,Overcast,0,2013-04-07 06:35:00
1:55 AM,32.0,32.0,100,29.86,10.0,NE,3.5,-,N/A,,Overcast,40,2013-04-07 06:55:00
2:15 AM,32.0,32.0,100,29.86,10.0,Calm,Calm,-,N/A,,Overcast,0,2013-04-07 07:15:00
2:35 AM,32.0,32.0,100,29.86,10.0,NE,3.5,-,N/A,,Overcast,40,2013-04-07 07:35:00
2:55 AM,32.0,32.0,100,29.86,10.0,Calm,Calm,-,N/A,,Overcast,0,2013-04-07 07:55:00
3:15 AM,32.0,32.0,100,29.86,10.0,Calm,Calm,-,N/A,,Overcast,0,2013-04-07 08:15:00
3:35 AM,32.0,32.0,100,29.86,10.0,Calm,Calm,-,N/A,,Overcast,0,2013-04-07 08:35:00
3:55 AM,32.0,32.0,100,29.85,10.0,SE,4.6,-,N/A,,Overcast,130,2013-04-07 08:55:00
4:15 AM,32.0,32.0,100,29.85,10.0,SE,6.9,-,N/A,,Overcast,130,2013-04-07 09:15:00
4:35 AM,32.0,32.0,100,29.84,8.0,ESE,6.9,-,N/A,,Overcast,120,2013-04-07 09:35:00
4:55 AM,32.0,32.0,100,29.83,9.0,ESE,6.9,-,N/A,,Overcast,110,2013-04-07 09:55:00
5:15 AM,32.0,32.0,100,29.83,10.0,SE,9.2,-,N/A,,Overcast,130,2013-04-07 10:15:00
5:35 AM,32.0,32.0,100,29.83,10.0,SE,5.8,-,N/A,,Overcast,130,2013-04-07 10:35:00
5:55 AM,32.0,32.0,100,29.83,10.0,SE,6.9,-,N/A,,Overcast,130,2013-04-07 10:55:00
6:15 AM,32.0,32.0,100,29.82,9.0,SE,6.9,-,N/A,,Overcast,130,2013-04-07 11:15:00
6:35 AM,32.0,32.0,100,29.82,8.0,SE,5.8,-,N/A,,Overcast,140,2013-04-07 11:35:00
6:55 AM,32.0,32.0,100,29.81,7.0,SSE,8.1,-,N/A,,Overcast,160,2013-04-07 11:55:00
7:15 AM,32.0,32.0,100,29.82,5.0,SSE,8.1,-,N/A,,Overcast,160,2013-04-07 12:15:00
7:35 AM,32.0,32.0,100,29.83,4.0,South,6.9,-,N/A,,Overcast,170,2013-04-07 12:35:00
7:55 AM,32.0,32.0,100,29.83,2.0,South,9.2,-,N/A,Rain,Light Rain,170,2013-04-07 12:55:00
8:15 AM,32.0,32.0,100,29.83,1.2,SSE,5.8,-,N/A,Rain,Light Rain,160,2013-04-07 13:15:00
8:35 AM,32.0,32.0,100,29.82,1.5,SE,5.8,-,N/A,Rain,Light Rain,130,2013-04-07 13:35:00
8:55 AM,32.0,32.0,100,29.81,1.0,SE,6.9,-,0.01,Rain,Light Rain,130,2013-04-07 13:55:00
9:15 AM,32.0,32.0,100,29.80,1.0,ESE,11.5,-,N/A,Rain,Light Rain,120,2013-04-07 14:15:00
9:35 AM,32.0,32.0,100,29.79,2.0,SE,12.7,-,N/A,Rain,Light Rain,140,2013-04-07 14:35:00
9:55 AM,32.0,32.0,100,29.81,4.0,SSE,10.4,-,N/A,Rain,Light Rain,160,2013-04-07 14:55:00
10:15 AM,32.0,32.0,100,29.80,5.0,South,9.2,-,N/A,,Overcast,170,2013-04-07 15:15:00
10:35 AM,33.8,33.8,100,29.79,6.0,SSE,11.5,-,N/A,Rain,Light Rain,160,2013-04-07 15:35:00
10:55 AM,33.8,33.8,100,29.77,7.0,SSE,12.7,-,N/A,Rain,Light Rain,150,2013-04-07 15:55:00
11:15 AM,32.0,32.0,100,29.77,6.0,SSE,13.8,-,N/A,,Mostly Cloudy,150,2013-04-07 16:15:00
11:35 AM,33.8,33.8,100,29.75,8.0,SSE,15.0,-,N/A,,Overcast,150,2013-04-07 16:35:00
11:55 AM,35.6,35.6,100,29.77,10.0,SSE,16.1,-,N/A,,Overcast,160,2013-04-07 16:55:00
12:15 PM,35.6,35.6,100,29.76,10.0,SSE,12.7,-,N/A,,Overcast,160,2013-04-07 17:15:00
12:35 PM,35.6,35.6,100,29.76,10.0,SSE,15.0,-,N/A,,Overcast,150,2013-04-07 17:35:00
12:55 PM,35.6,35.6,100,29.75,10.0,SSE,13.8,-,N/A,,Overcast,160,2013-04-07 17:55:00
1:15 PM,37.4,37.4,100,29.73,10.0,SSE,16.1,20.7,N/A,,Overcast,160,2013-04-07 18:15:00
1:35 PM,39.2,37.4,93,29.72,9.0,SSE,16.1,23.0,N/A,,Overcast,160,2013-04-07 18:35:00
1:55 PM,39.2,37.4,93,29.72,10.0,South,13.8,-,N/A,,Overcast,170,2013-04-07 18:55:00
2:15 PM,41.0,37.4,87,29.71,10.0,South,13.8,17.3,N/A,,Overcast,170,2013-04-07 19:15:00
2:35 PM,42.8,37.4,81,29.70,10.0,South,11.5,-,N/A,,Overcast,170,2013-04-07 19:35:00
2:55 PM,41.0,37.4,87,29.69,10.0,South,13.8,17.3,N/A,,Overcast,190,2013-04-07 19:55:00
3:15 PM,44.6,37.4,76,29.69,10.0,South,9.2,-,N/A,,Overcast,170,2013-04-07 20:15:00
3:35 PM,44.6,37.4,76,29.69,10.0,South,10.4,-,N/A,,Mostly Cloudy,180,2013-04-07 20:35:00
3:55 PM,44.6,37.4,76,29.69,10.0,South,8.1,-,N/A,,Mostly Cloudy,190,2013-04-07 20:55:00
4:15 PM,44.6,39.2,81,29.68,10.0,SSW,8.1,-,N/A,,Mostly Cloudy,210,2013-04-07 21:15:00
4:35 PM,46.4,39.2,76,29.69,10.0,SSW,8.1,-,N/A,,Overcast,210,2013-04-07 21:35:00
4:55 PM,46.4,39.2,76,29.68,10.0,South,10.4,-,N/A,,Overcast,190,2013-04-07 21:55:00
5:15 PM,48.2,39.2,71,29.68,10.0,SSE,5.8,-,N/A,,Scattered Clouds,160,2013-04-07 22:15:00
5:35 PM,48.2,39.2,71,29.68,10.0,SE,6.9,-,N/A,,Partly Cloudy,130,2013-04-07 22:35:00
5:55 PM,48.2,39.2,71,29.67,10.0,ESE,11.5,-,N/A,,Clear,110,2013-04-07 22:55:00
6:15 PM,46.4,39.2,76,29.67,10.0,ESE,10.4,-,N/A,,Mostly Cloudy,110,2013-04-07 23:15:00
6:35 PM,46.4,39.2,76,29.67,10.0,East,6.9,-,N/A,,Overcast,100,2013-04-07 23:35:00
6:55 PM,46.4,39.2,76,29.67,10.0,ESE,9.2,-,N/A,,Overcast,110,2013-04-07 23:55:00
7:15 PM,46.4,39.2,76,29.67,10.0,ESE,10.4,-,N/A,,Overcast,110,2013-04-08 00:15:00
7:35 PM,44.6,39.2,81,29.67,10.0,East,9.2,-,N/A,,Overcast,100,2013-04-08 00:35:00
7:55 PM,44.6,39.2,81,29.67,10.0,East,9.2,-,N/A,,Overcast,100,2013-04-08 00:55:00
8:15 PM,44.6,39.2,81,29.67,10.0,East,8.1,-,N/A,,Overcast,90,2013-04-08 01:15:00
8:35 PM,42.8,39.2,87,29.67,10.0,East,6.9,-,N/A,,Overcast,80,2013-04-08 01:35:00
8:55 PM,41.0,39.2,93,29.67,10.0,East,9.2,-,N/A,,Overcast,90,2013-04-08 01:55:00
9:15 PM,41.0,39.2,93,29.67,10.0,East,10.4,-,N/A,,Mostly Cloudy,80,2013-04-08 02:15:00
9:35 PM,39.2,39.2,100,29.68,10.0,East,11.5,-,N/A,,Partly Cloudy,80,2013-04-08 02:35:00
9:55 PM,37.4,37.4,100,29.69,10.0,East,9.2,-,N/A,,Clear,100,2013-04-08 02:55:00
10:15 PM,35.6,35.6,100,29.70,10.0,East,11.5,-,N/A,,Clear,100,2013-04-08 03:15:00
10:35 PM,33.8,33.8,100,29.70,8.0,East,11.5,-,N/A,,Clear,100,2013-04-08 03:35:00
10:55 PM,32.0,32.0,100,29.70,7.0,East,9.2,-,N/A,,Clear,90,2013-04-08 03:55:00
11:15 PM,32.0,32.0,100,29.70,7.0,East,11.5,-,N/A,,Clear,90,2013-04-08 04:15:00
11:35 PM,32.0,32.0,100,29.71,5.0,East,11.5,-,N/A,,Clear,80,2013-04-08 04:35:00
11:55 PM,32.0,32.0,100,29.71,5.0,East,13.8,-,N/A,,Partly Cloudy,80,2013-04-08 04:55:00